Terminal Aerodrome Forecast
Issued by NWS Blacksburg, VA

Home | Current Version | Previous Version | Text Only | Print | Product List | Glossary On
Versions: 1 2 3 4 5 6 7 8 9 10 11 12 13 14 15 16 17 18 19 20 21 22 23 24 25 26 27 28 29 30 31 32
000
FTUS41 KRNK 032333
TAFLYH
TAF
KLYH 032333Z 0400/0424 34003KT P6SM VCSH SKC
     FM040100 02002KT P6SM SCT050 BKN080
     FM040800 00000KT 4SM BR BKN080
     FM041300 00000KT P6SM OVC060
     FM041800 05005KT P6SM VCTS BKN050CB
     FM042200 03005KT P6SM VCSH OVC050=

USA.gov is the U.S. government's official web portal to all federal, state and local government web resources and services.